Manhattan, KS

12:12 AM CDT on August 23, 2017 (GMT -0500)
Manhattan Regional

Weather History for KMHK - February, 2014

Change the Weather History Date:

Thursday, February 27, 2014

  Actual Average Record
Temperature  
Mean Temperature 25 °F 37 °F  
Max Temperature 37 °F 49 °F 77 °F (2016)
Min Temperature 13 °F 24 °F 3 °F (2002)
Degree Days  
Heating Degree Days 40 28  
Month to date heating degree days 1053 866  
Since 1 July heating degree days 4504 4132  
Cooling Degree Days 0 0  
Month to date cooling degree days 0 0  
Year to date cooling degree days 0 0  
Moisture  
Dew Point 11 °F    
Average Humidity 62    
Maximum Humidity 88    
Minimum Humidity 35    
Precipitation  
Precipitation 0.00 in 0.04 in 0.11 in (2001)
Month to date precipitation 0.91 1.03  
Year to date precipitation 1.22 1.68  
Sea Level Pressure  
Sea Level Pressure 30.05 in    
Wind  
Wind Speed 9 mph (East)    
Max Wind Speed 17 mph    
Max Gust Speed 22 mph    
Visibility 10 miles    
Events      
T = Trace of Precipitation, MM = Missing Value Source: NWS Daily Summary

Daily Weather History Graph

Daily Weather History Graph

Search for Another Location

Airport or City:

Trip Planner

Search our weather history database for the weather conditions in past years. The results will help you decide how hot, cold, wet, or windy it might be!

Date:

Astronomy

Feb. 27, 2014 Rise Set
Actual Time 7:02 AM CST 6:17 PM CST
Civil Twilight 6:35 AM CST 6:44 PM CST
Nautical Twilight 6:04 AM CST 7:15 PM CST
Astronomical Twilight 5:33 AM CST 7:46 PM CST
Moon 5:34 AM CST (2/27) 4:44 PM CST (2/27)
Length of Visible Light 12h 08m
Length of Day
11h 15m
Waning Crescent, 4% of the Moon is Illuminated
Feb 27
Waning Crescent
Mar 1
New
Mar 8
First Quarter
Mar 16
Full
Mar 23
Last Quarter

Hourly Weather History & Observations

Time (CST) Temp. Windchill Dew Point Humidity Pressure Visibility Wind Dir Wind Speed Gust Speed Precip Events Conditions
12:52 AM 19.9 °F 13.4 °F 15.1 °F 81% 30.08 in 10.0 mi SW 4.6 mph - N/A   Clear
1:52 AM 19.0 °F - 15.1 °F 85% 30.08 in 10.0 mi Calm Calm - N/A   Clear
2:52 AM 17.1 °F 10.0 °F 12.9 °F 84% 30.08 in 10.0 mi SSW 4.6 mph - N/A   Clear
3:52 AM 16.0 °F - 12.0 °F 84% 30.09 in 10.0 mi Calm Calm - N/A   Clear
4:52 AM 17.1 °F 11.7 °F 12.0 °F 81% 30.12 in 10.0 mi NNE 3.5 mph - N/A   Clear
5:52 AM 17.1 °F - 12.0 °F 81% 30.14 in 10.0 mi Calm Calm - N/A   Clear
6:52 AM 15.1 °F - 10.9 °F 84% 30.16 in 10.0 mi Calm Calm - N/A   Clear
7:52 AM 19.9 °F 8.6 °F 12.9 °F 74% 30.17 in 10.0 mi NE 10.4 mph - N/A   Clear
8:52 AM 21.9 °F 8.7 °F 12.0 °F 66% 30.18 in 10.0 mi NE 15.0 mph - N/A   Clear
9:52 AM 23.0 °F 11.7 °F 12.0 °F 63% 30.19 in 10.0 mi ENE 11.5 mph - N/A   Clear
10:52 AM 25.0 °F 13.6 °F 10.9 °F 55% 30.16 in 10.0 mi ENE 12.7 mph - N/A   Clear
11:52 AM 27.0 °F 15.6 °F 10.9 °F 51% 30.14 in 10.0 mi East 13.8 mph - N/A   Clear
12:52 PM 30.0 °F 20.0 °F 10.0 °F 43% 30.09 in 10.0 mi ESE 12.7 mph 20.7 mph N/A   Clear
1:52 PM 33.1 °F 24.9 °F 10.9 °F 40% 30.04 in 10.0 mi East 10.4 mph - N/A   Clear
2:52 PM 34.0 °F 25.5 °F 10.9 °F 38% 30.01 in 10.0 mi East 11.5 mph - N/A   Clear
3:52 PM 35.1 °F 26.4 °F 10.0 °F 35% 29.99 in 10.0 mi East 12.7 mph - N/A   Clear
4:52 PM 35.1 °F 27.4 °F 12.0 °F 39% 29.97 in 10.0 mi East 10.4 mph - N/A   Clear
5:52 PM 34.0 °F 25.5 °F 10.9 °F 38% 29.95 in 10.0 mi ESE 11.5 mph - N/A   Clear
6:52 PM 30.0 °F 20.0 °F 10.9 °F 45% 29.96 in 10.0 mi East 12.7 mph - N/A   Clear
7:52 PM 28.0 °F 17.5 °F 9.0 °F 45% 29.95 in 10.0 mi East 12.7 mph - N/A   Clear
8:52 PM 27.0 °F 17.3 °F 9.0 °F 47% 29.92 in 10.0 mi East 10.4 mph - N/A   Clear
9:52 PM 27.0 °F 16.7 °F 9.0 °F 47% 29.91 in 10.0 mi East 11.5 mph 19.6 mph N/A   Clear
10:52 PM 27.0 °F 18.7 °F 8.1 °F 45% 29.90 in 10.0 mi East 8.1 mph - N/A   Clear
11:52 PM 27.0 °F 18.7 °F 6.1 °F 41% 29.88 in 10.0 mi East 8.1 mph - N/A   Clear